Regional Weather Roundup
Issued by NWS

Home | Current Version | Previous Version | Text Only | Print | Product List | Glossary On
Versions: 1 2 3 4 5 6 7 8 9 10 11 12 13 14 15 16 17 18 19 20 21 22 23 24 25 26 27
000
ASUS45 KBOU 241907
RWRCO

WEATHER ROUNDUP FOR COLORADO
NATIONAL WEATHER SERVICE DENVER/BOULDER CO
100 PM MDT MON JUL 24 2017

NOTE: "FAIR" INDICATES FEW OR NO CLOUDS BELOW 12000 FEET WITH NO
SIGNIFICANT WEATHER AND/OR OBSTRUCTIONS TO VISIBILITY.

COZ001>005-013-030-031-242000-
...NORTHWEST COLORADO...

CITY           SKY/WX    TMP DP  RH WIND       PRES   REMARKS
CRAIG          FAIR      88  37  16 NW7       30.16F
HAYDEN         FAIR      82  39  21 NW13      30.20F
MEEKER         FAIR      87  43  21 S6        30.18F
RABBIT EARS PA FAIR      66  37  34 W8        30.54F
STEAMBOAT SPGS FAIR      83  43  23 CALM      30.23F
WALDEN         FAIR      77  34  20 W7        30.33S
$$

COZ006>008-011-242000-
...WEST CENTRAL VALLEYS...

CITY           SKY/WX    TMP DP  RH WIND       PRES   REMARKS
GRAND JUNCTION FAIR      90  51  26 W9G18     30.07F
MONTROSE       FAIR      88  49  25 N9        30.15F
EAGLE          SUNNY     84  46  26 NE5       30.20F
RIFLE          FAIR      89  45  21 NW9       30.11F
DELTA          FAIR      91  46  21 SW5       30.11F
NUCLA          FAIR      84  46  26 CALM      30.21F
$$

COZ017>023-064>068-242000-
...SOUTHWEST COLORADO...

CITY           SKY/WX    TMP DP  RH WIND       PRES   REMARKS
DURANGO        CLOUDY    77  50  38 W6        30.24F
CORTEZ         FAIR      83  55  38 CALM      30.19F
PAGOSA SPRINGS PTSUNNY   79  46  30 SW10G16   30.31F
TELLURIDE      FAIR      69  47  44 N3        30.44F
WOLF CREEK PAS FAIR      54  45  71 CALM      30.70S THUNDER
$$

COZ009-010-012-014-032>034-037-058>063-242000-
...CENTRAL COLORADO...

CITY           SKY/WX    TMP DP  RH WIND       PRES   REMARKS
ASPEN          FAIR      82  40  22 NW8       30.28F
BUENA VISTA    FAIR      81  38  21 SW5       30.29F
COPPER MTN     CLOUDY    61  32  33 CALM      30.66F
BERTHOUD PASS  FAIR      54  39  58 NW7       30.70F
COTTONWOOD PAS CLOUDY    73  32  21 CALM      30.47S
GUNNISON       FAIR      76  49  38 SW5       30.30F
KREMMLING      FAIR      90  34  13 W6        30.26F
LEADVILLE      CLOUDY    69  28  21 N9        30.45F
MONARCH PASS   CLOUDY    59  39  47 NE5       30.74F
SALIDA         FAIR      85  35  16 NW6       30.33F
SUNLIGHT       FAIR      63  41  45 SW6       30.58F
WILKERSON PASS CLOUDY    61  36  39 CALM      30.61F
$$

COZ069>075-242000-
...SAN LUIS VALLEY/SANGRE DE CRISTO MOUNTAINS...

CITY           SKY/WX    TMP DP  RH WIND       PRES   REMARKS
ALAMOSA        FAIR      76  50  40 S6        30.29F
DEL NORTE      PTSUNNY   78  47  33 E8        30.33F
LA VETA PASS   NOT AVBL
SAGUACHE         N/A    N/A N/A N/A MISG        N/A
$$

COZ035-036-038>040-242000-
...NORTHERN COLORADO FRONT RANGE...

CITY           SKY/WX    TMP DP  RH WIND       PRES   REMARKS
DENVER INTL AP FAIR      93  40  15 NE6       30.06F
DMNS CITY PARK   N/A     92  37  14 E5G10     30.05F
AURORA         MOSUNNY   91  41  17 NW3       30.09F
FRONT RANGE AP MOSUNNY   93  37  14 NE7       30.08F
ERIE MUNI ARPT FAIR      94  35  12 CALM      30.04F
BOULDER MUN AP FAIR      91  41  17 SE5       30.06S
CENTENNIAL     FAIR      91  38  15 NE3       30.10F
BROOMFIELD     FAIR      91  39  16 NE5       30.09F
FORT COLLINS   FAIR      94  49  21 E9G16     30.04F HAZE
LONGMONT       FAIR      95  46  18 CALM      30.05F
$$

COZ041-046-047-076>085-087-088-242000-
...PIKES PEAK/PALMER DIVIDE AND SOUTHERN FOOTHILLS...

CITY           SKY/WX    TMP DP  RH WIND       PRES   REMARKS
COLO. SPRINGS  FAIR      87  53  31 S14G20    30.17F
A. F. ACADEMY  FAIR      83  52  34 S8        30.17F
SCHRIEVER AFB  FAIR      83  49  30 SE12      30.17F
CHEYENNE MTN   FAIR      78  56  47 SE9       30.18
ELLICOTT       FAIR     N/A N/A N/A SW8G20    30.16F
FALCON           N/A     82  48  30 SE9G17    30.23F
FORT CARSON    FAIR      84  53  34 E8        30.13F
LIMON          FAIR      87  50  27 S14G21    30.11F
MONUMENT HILL  FAIR      82  37  20 W5        30.23F
CANON CITY     SUNNY     91  54  27 SE5       30.07F
WALSENBURG     FAIR      90  45  20 CALM      30.14F
TRINIDAD       FAIR      90  40  17 VRB6      30.14F
$$

COZ042>045-048>051-090-091-242000-
...NORTHEAST COLORADO...

CITY           SKY/WX    TMP DP  RH WIND       PRES   REMARKS
GREELEY ARPT   FAIR      91  48  22 VRB3      30.02F
AKRON          FAIR      93  52  24 S20G25    30.03F
BURLINGTON     FAIR      91  59  33 S17G25    30.05F
WRAY           NOT AVBL
YUMA           FAIR      91  36  14 S15G22    30.00F
STERLING       FAIR      97  54  23 S8G17     29.95F
HOLYOKE        FAIR      97  54  23 S17G24    29.98F
FORT MORGAN    FAIR      97  44  16 S10G16    30.00F
$$

COZ086-089-092>099-242000-
...SOUTHEAST COLORADO...

CITY           SKY/WX    TMP DP  RH WIND       PRES   REMARKS
PUEBLO         FAIR      93  52  24 SE8       30.03F
LA JUNTA       FAIR      94  50  22 SW8       30.02F
LAMAR          FAIR      93  58  30 S16       29.99F
SPRINGFIELD      N/A     89  59  36 S17G23    30.07F
$$




USA.gov is the U.S. government's official web portal to all federal, state and local government web resources and services.